CYVR

Vancouver International Airport

Airport
ICAO code
CYVR
IATA Code
YVR
Summary
ICAO Region
NAM
ICAO Territory
Location

Sea Island, Richmond, British Columbia

Serving
Vancouver
Elevation
14 ft
Coordinates
49° 11' 40" N , 123° 10' 49" W
KCC
Airport LOS
Parallel Runway Operation
Airport WX
Fog
Metar
Observation
CYVR 272000Z 29006KT 15SM FEW016 BKN023 07/06 A3023 RMK CU1SC7 CU TR SLP240
Station
Vancouver International Air-Port, B. C.
Date/Time
2023-01-27 21:00:00
Wind direction
290°
Wind speed
06 kts
Lowest cloud amount
few clouds
Temperature
7°C
Dew point
6°C
Humidity
93%
Weather condition
n/a

Description

Vancouver International Airport is located on Sea Island in Richmond, British Columbia, Canada, about 12 km from Downtown Vancouver.

Climatology

Temperate Marine climate/Oceanic climate (Köppen climate classification Cfb). Moderately cool summer and comparatively warm winter.

Runways

Designator Length Width Surface Rops
XX/26A 1067 23 CON No/No
12/30 2225 61 CON Yes/Yes
08L/26R 3030 61 CON Yes/Yes
08R/26L 3505 61 ASP Yes/Yes

Airport map

Aerial View

SKYbrary Partners:

Safety knowledge contributed by: